Location: *
(46.3500°N, 10.9000°E)
Time: 00:50:34
(UTC+00:00)

Vanguard 2 - Pass Details

Date: 26 April 2021
Orbit: 552 x 2938 km, 32.9° (Epoch: 12 May)

Event Time Altitude Azimuth Distance (km) Brightness Sun altitude
Rises 16:16:32 0° 271° (W) 5,856 13.7 19.8°
Reaches altitude 10° 16:24:01 10° 247° (WSW) 4,209 12.7 18.5°
Maximum altitude 16:27:39 12° 227° (SW) 3,680 11.8 17.9°
Drops below altitude 10° 16:30:50 10° 207° (SSW) 3,524 11.3 17.3°
Sets 16:35:42 0° 178° (S) 3,968 11.1 16.5°
